QPF
0.00 0.00 0.00 0.00 0.00 0.00 0.00 0.00 0.00 0.00 0.00 0.00 0.00 0.00 0.00 0.00 0.00 0.00 0.00 0.00 0.00 0.00 0.00 0.00 0.00 0.00 0.00 0.00 0.00 0.00 0.00 0.00 0.00 0.00 0.00 0.01 0.00 0.00 0.00 0.00 0.00 0.00 0.00 0.00 0.00
0.00 0.00 0.00 0.00 0.00 0.00 0.00 0.00 0.00 0.00 0.00 0.00 0.00 0.00 0.00 0.00 0.00 0.00 0.00 0.00 0.00 0.00 0.00 0.00 0.00 0.00 0.00 0.00 0.00 0.00 0.00 0.00 0.01 0.00 0.00 0.01 0.00 0.00 0.00 0.00 0.00 0.00 0.00 0.00 0.00
0.00 0.00 0.00 0.00 0.00 0.00 0.00 0.00 0.00 0.00 0.00 0.00 0.00 0.00 0.00 0.00 0.00 0.00 0.00 0.00 0.00 0.00 0.00 0.00 0.00 0.00 0.00 0.00 0.00 0.00 0.00 0.01 0.00 0.00 0.00 0.00 0.00 0.00 0.00 0.00 0.00 0.00 0.00 0.00 0.00
0.00 0.00 0.00 0.00 0.00 0.00 0.00 0.00 0.00 0.00 0.00 0.00 0.00 0.00 0.00 0.00 0.00 0.00 0.00 0.00 0.00 0.00 0.00 0.00 0.00 0.00 0.00 0.00 0.00 0.00 0.00 0.00 0.00 0.00 0.00 0.01 0.02 0.02 0.01 0.00 0.00 0.00 0.00 0.00 0.00
0.00 0.00 0.00 0.00 0.00 0.00 0.00 0.00 0.00 0.00 0.00 0.00 0.00 0.00 0.00 0.00 0.00 0.00 0.00 0.00 0.00 0.00 0.00 0.00 0.00 0.00 0.00 0.00 0.00 0.00 0.00 0.00 0.00 0.00 0.00 0.00 0.01 0.01 0.02 0.00 0.00 0.00 0.00 0.00 0.00
0.00 0.00 0.00 0.00 0.00 0.00 0.00 0.00 0.00 0.00 0.00 0.00 0.00 0.00 0.00 0.00 0.00 0.00 0.00 0.00 0.00 0.00 0.00 0.00 0.00 0.00 0.00 0.00 0.00 0.00 0.00 0.00 0.00 0.00 0.00 0.00 0.01 0.01 0.00 0.00 0.00 0.00 0.00 0.00 0.00
0.01 0.00 0.00 0.00 0.00 0.00 0.00 0.00 0.00 0.00 0.00 0.00 0.00 0.00 0.00 0.00 0.00 0.00 0.00 0.00 0.00 0.00 0.00 0.00 0.00 0.00 0.00 0.00 0.00 0.00 0.00 0.00 0.00 0.00 0.00 0.00 0.00 0.01 0.01 0.01 0.00 0.00 0.00 0.00 0.00
0.01 0.01 0.00 0.00 0.00 0.00 0.00 0.00 0.00 0.00 0.00 0.00 0.00 0.00 0.00 0.00 0.00 0.00 0.00 0.00 0.00 0.00 0.00 0.00 0.00 0.00 0.00 0.00 0.00 0.00 0.00 0.00 0.00 0.00 0.00 0.00 0.00 0.00 0.00 0.00 0.02 0.02 0.02 0.00 0.00
0.01 0.01 0.00 0.00 0.00 0.00 0.00 0.00 0.00 0.00 0.00 0.00 0.00 0.00 0.00 0.00 0.00 0.00 0.00 0.00 0.00 0.00 0.00 0.00 0.00 0.00 0.00 0.00 0.00 0.00 0.00 0.00 0.00 0.00 0.00 0.00 0.00 0.00 0.00 0.01 0.00 0.01 0.02 0.01 0.00
0.01 0.01 0.00 0.00 0.00 0.00 0.00 0.00 0.00 0.00 0.00 0.00 0.00 0.00 0.00 0.00 0.00 0.00 0.00 0.00 0.00 0.00 0.00 0.00 0.00 0.00 0.00 0.00 0.00 0.00 0.00 0.00 0.00 0.00 0.00 0.00 0.00 0.00 0.00 0.00 0.00 0.00 0.00 0.00 0.00
0.00 0.01 0.01 0.00 0.00 0.00 0.00 0.00 0.00 0.00 0.00 0.00 0.00 0.00 0.00 0.00 0.00 0.00 0.00 0.00 0.00 0.00 0.00 0.00 0.00 0.00 0.00 0.00 0.00 0.00 0.00 0.00 0.00 0.00 0.00 0.00 0.00 0.00 0.00 0.00 0.00 0.00 0.01 0.01 0.00
0.01 0.01 0.01 0.00 0.00 0.00 0.00 0.00 0.00 0.00 0.00 0.00 0.00 0.00 0.00 0.00 0.00 0.00 0.00 0.00 0.00 0.00 0.00 0.00 0.00 0.00 0.00 0.00 0.00 0.00 0.00 0.00 0.00 0.00 0.00 0.00 0.00 0.00 0.00 0.00 0.00 0.00 0.00 0.00 0.00
0.01 0.01 0.00 0.00 0.00 0.00 0.00 0.00 0.00 0.00 0.00 0.00 0.00 0.00 0.00 0.00 0.00 0.00 0.00 0.00 0.00 0.00 0.00 0.00 0.00 0.00 0.00 0.00 0.00 0.00 0.00 0.00 0.00 0.00 0.00 0.00 0.00 0.00 0.00 0.00 0.00 0.00 0.00 0.00 0.00
0.00 0.01 0.00 0.00 0.00 0.00 0.00 0.00 0.00 0.00 0.00 0.00 0.00 0.00 0.00 0.00 0.00 0.00 0.00 0.00 0.00 0.00 0.00 0.00 0.00 0.00 0.00 0.00 0.00 0.00 0.00 0.00 0.00 0.00 0.00 0.00 0.00 0.00 0.00 0.00 0.00 0.00 0.00 0.00 0.00
0.00 0.00 0.00 0.00 0.00 0.00 0.00 0.00 0.00 0.00 0.00 0.00 0.00 0.00 0.00 0.00 0.00 0.00 0.00 0.00 0.00 0.00 0.00 0.00 0.00 0.00 0.00 0.00 0.00 0.00 0.00 0.00 0.00 0.00 0.00 0.00 0.00 0.00 0.00 0.00 0.00 0.00 0.00 0.00 0.00
0.00 0.00 0.00 0.00 0.00 0.00 0.00 0.00 0.00 0.00 0.00 0.00 0.00 0.00 0.00 0.00 0.00 0.00 0.00 0.00 0.00 0.00 0.00 0.00 0.00 0.00 0.00 0.00 0.00 0.00 0.00 0.00 0.00 0.00 0.00 0.00 0.00 0.00 0.00 0.00 0.00 0.00 0.00 0.00 0.00
0.00 0.00 0.00 0.00 0.00 0.00 0.00 0.00 0.00 0.00 0.00 0.00 0.00 0.00 0.00 0.00 0.00 0.00 0.00 0.00 0.00 0.00 0.00 0.00 0.00 0.00 0.00 0.00 0.00 0.00 0.00 0.00 0.00 0.00 0.00 0.00 0.00 0.00 0.00 0.00 0.00 0.00 0.00 0.00 0.00
0.00 0.00 0.00 0.00 0.00 0.00 0.00 0.00 0.00 0.00 0.00 0.00 0.00 0.00 0.00 0.00 0.00 0.00 0.00 0.00 0.00 0.00 0.00 0.00 0.00 0.00 0.00 0.00 0.00 0.00 0.00 0.00 0.00 0.00 0.00 0.00 0.00 0.00 0.00 0.00 0.00 0.00 0.00 0.00 0.00
0.00 0.00 0.00 0.00 0.00 0.00 0.00 0.00 0.00 0.00 0.00 0.00 0.00 0.00 0.00 0.00 0.00 0.00 0.00 0.00 0.00 0.00 0.00 0.00 0.00 0.00 0.00 0.00 0.00 0.00 0.00 0.00 0.00 0.00 0.00 0.00 0.00 0.00 0.00 0.00 0.00 0.00 0.00 0.00 0.00
0.00 0.00 0.00 0.00 0.00 0.00 0.00 0.00 0.00 0.00 0.00 0.00 0.00 0.00 0.00 0.00 0.00 0.00 0.00 0.00 0.00 0.00 0.00 0.00 0.00 0.00 0.00 0.00 0.00 0.00 0.00 0.00 0.00 0.00 0.00 0.00 0.00 0.00 0.00 0.00 0.00 0.00 0.00 0.00 0.00
0.00 0.00 0.00 0.00 0.00 0.00 0.00 0.00 0.00 0.00 0.00 0.00 0.00 0.00 0.00 0.00 0.00 0.00 0.00 0.00 0.00 0.00 0.00 0.00 0.00 0.00 0.00 0.00 0.00 0.00 0.00 0.00 0.00 0.00 0.00 0.00 0.00 0.00 0.00 0.00 0.00 0.00 0.00 0.00 0.00
0.00 0.00 0.00 0.00 0.00 0.00 0.00 0.00 0.00 0.00 0.00 0.00 0.00 0.00 0.00 0.00 0.00 0.00 0.00 0.00 0.00 0.00 0.00 0.00 0.00 0.00 0.00 0.00 0.00 0.00 0.00 0.00 0.00 0.00 0.00 0.00 0.00 0.00 0.00 0.00 0.00 0.00 0.00 0.00 0.00
0.00 0.00 0.00 0.00 0.00 0.00 0.00 0.00 0.00 0.00 0.00 0.00 0.00 0.00 0.00 0.00 0.00 0.00 0.00 0.00 0.00 0.00 0.00 0.00 0.00 0.00 0.00 0.00 0.00 0.00 0.00 0.00 0.00 0.00 0.00 0.00 0.00 0.00 0.00 0.00 0.00 0.00 0.00 0.00 0.00
0.00 0.00 0.00 0.00 0.00 0.00 0.00 0.00 0.00 0.00 0.00 0.00 0.00 0.00 0.00 0.00 0.00 0.00 0.00 0.00 0.00 0.00 0.00 0.00 0.00 0.00 0.00 0.00 0.00 0.00 0.00 0.00 0.00 0.00 0.00 0.00 0.00 0.00 0.00 0.00 0.00 0.00 0.00 0.00 0.00
0.00 0.00 0.00 0.00 0.00 0.00 0.00 0.00 0.00 0.00 0.00 0.00 0.00 0.00 0.00 0.00 0.00 0.00 0.00 0.00 0.00 0.00 0.00 0.00 0.00 0.00 0.00 0.00 0.00 0.00 0.00 0.00 0.00 0.00 0.00 0.00 0.00 0.00 0.00 0.00 0.00 0.00 0.00 0.00 0.00
0.00 0.00 0.00 0.00 0.00 0.00 0.00 0.00 0.00 0.00 0.00 0.00 0.00 0.00 0.00 0.00 0.00 0.00 0.00 0.00 0.00 0.00 0.00 0.00 0.00 0.00 0.00 0.00 0.00 0.00 0.00 0.00 0.00 0.00 0.00 0.00 0.00 0.00 0.00 0.00 0.00 0.00 0.00 0.00 0.00
0.00 0.00 0.00 0.00 0.00 0.00 0.00 0.00 0.00 0.00 0.00 0.00 0.00 0.00 0.00 0.00 0.00 0.00 0.00 0.00 0.00 0.00 0.00 0.00 0.00 0.00 0.00 0.00 0.00 0.00 0.00 0.00 0.00 0.00 0.00 0.00 0.00 0.00 0.00 0.00 0.00 0.00 0.00 0.00 0.00
MSLP
1016.22 1016.02 1015.82 1015.65 1015.54 1015.46 1015.32 1015.15 1014.94 1014.81 1014.68 1014.40 1014.21 1013.98 1013.71 1013.44 1012.75 1012.50 1011.38 1008.91 1008.91 1008.56 1008.91 1009.13 1009.30 1009.18 1009.28 1009.48 1009.68 1009.78 1010.72 1011.20 1010.87 1010.60 1009.84 1009.55 1009.32 1008.48 1008.42 1008.63 1009.13 1009.35 1009.78 1009.99 1011.21
1016.16 1015.96 1015.80 1015.69 1015.53 1015.34 1015.20 1015.04 1014.84 1014.70 1014.55 1014.35 1014.14 1013.90 1013.67 1013.44 1012.93 1011.30 1008.21 1008.09 1008.55 1008.66 1008.93 1008.99 1009.01 1009.09 1009.38 1009.44 1009.52 1009.77 1010.36 1010.10 1009.49 1009.23 1008.91 1009.03 1008.87 1008.59 1008.70 1009.09 1009.56 1009.94 1010.11 1010.53 1011.40
1016.13 1015.91 1015.81 1015.65 1015.41 1015.21 1015.05 1014.93 1014.71 1014.58 1014.46 1014.30 1014.04 1013.78 1013.60 1013.43 1012.46 1008.89 1007.19 1007.54 1008.18 1008.51 1008.66 1008.79 1008.91 1009.16 1009.39 1009.34 1009.19 1009.20 1009.29 1008.83 1008.41 1008.26 1008.00 1008.19 1008.52 1008.57 1008.66 1009.23 1009.30 1009.78 1010.61 1011.01 1011.66
1016.12 1015.93 1015.72 1015.53 1015.31 1015.11 1014.91 1014.79 1014.69 1014.50 1014.38 1014.21 1013.90 1013.64 1013.44 1013.19 1010.94 1007.51 1007.08 1007.23 1007.96 1008.48 1008.80 1008.76 1008.96 1009.34 1009.40 1009.13 1008.65 1008.69 1008.02 1007.98 1007.79 1007.66 1007.68 1007.89 1008.35 1008.58 1008.85 1008.67 1008.71 1009.37 1010.05 1010.84 1011.65
1016.03 1015.84 1015.62 1015.36 1015.18 1014.97 1014.78 1014.64 1014.60 1014.50 1014.30 1014.10 1013.83 1013.58 1013.26 1012.33 1009.58 1007.23 1007.22 1007.45 1008.18 1008.59 1008.73 1008.96 1009.19 1009.25 1009.19 1008.70 1008.35 1008.06 1007.62 1007.34 1007.22 1007.28 1007.33 1007.73 1007.95 1007.91 1008.04 1008.10 1008.84 1009.66 1010.48 1010.81 1011.53
1015.83 1015.61 1015.42 1015.20 1014.99 1014.81 1014.62 1014.54 1014.49 1014.36 1014.17 1013.94 1013.74 1013.58 1013.10 1011.08 1007.63 1007.28 1007.58 1008.08 1008.09 1008.43 1008.65 1008.84 1008.83 1008.85 1008.87 1008.57 1008.23 1007.63 1007.54 1007.50 1007.48 1007.31 1007.16 1007.66 1008.13 1008.18 1008.17 1008.45 1008.80 1009.64 1010.09 1010.80 1011.20
1015.69 1015.35 1015.14 1014.97 1014.76 1014.59 1014.46 1014.40 1014.30 1014.18 1014.02 1013.86 1013.71 1013.47 1012.57 1009.04 1007.77 1007.70 1007.73 1008.02 1008.20 1008.27 1008.51 1008.32 1008.41 1008.78 1008.76 1008.52 1007.71 1007.64 1007.75 1007.53 1007.23 1007.27 1007.33 1007.46 1008.45 1008.13 1008.64 1008.86 1009.14 1009.21 1010.00 1010.51 1010.68
1015.52 1015.16 1014.86 1014.67 1014.53 1014.35 1014.26 1014.18 1014.08 1013.95 1013.83 1013.78 1013.69 1013.39 1011.36 1008.15 1007.85 1007.83 1007.74 1007.71 1007.81 1008.13 1008.07 1007.87 1008.25 1008.51 1008.73 1008.19 1008.19 1008.35 1008.50 1008.38 1007.41 1007.30 1007.48 1007.82 1008.25 1008.30 1008.77 1008.94 1009.03 1009.03 1009.10 1009.90 1010.17
1015.29 1014.93 1014.62 1014.38 1014.25 1014.14 1014.02 1013.91 1013.79 1013.62 1013.58 1013.66 1013.71 1013.06 1010.34 1007.87 1007.69 1006.96 1007.29 1007.55 1007.53 1007.90 1007.96 1007.85 1008.11 1008.51 1008.43 1009.00 1009.13 1009.49 1009.40 1008.93 1007.92 1007.66 1007.97 1008.46 1008.28 1008.23 1008.99 1009.27 1009.38 1009.26 1009.44 1009.53 1009.81
1014.98 1014.63 1014.31 1014.05 1013.94 1013.89 1013.78 1013.69 1013.59 1013.60 1013.59 1013.58 1013.07 1012.77 1009.40 1007.44 1006.73 1006.64 1006.96 1007.25 1007.66 1007.86 1007.80 1007.90 1008.51 1008.99 1009.48 1009.83 1010.18 1009.73 1009.40 1008.77 1008.31 1007.82 1007.91 1008.55 1008.39 1008.47 1009.16 1009.50 1009.47 1009.35 1009.34 1009.15 1009.26
1014.68 1014.27 1013.98 1013.78 1013.70 1013.70 1013.63 1013.61 1013.84 1013.48 1012.84 1011.20 1010.54 1009.70 1008.01 1006.81 1006.14 1006.42 1006.61 1007.39 1007.99 1008.23 1008.55 1008.64 1009.24 1009.41 1009.23 1009.38 1009.23 1009.46 1009.36 1008.97 1007.66 1007.48 1008.10 1008.28 1008.47 1008.14 1008.49 1009.08 1009.21 1008.76 1008.76 1008.85 1008.78
1014.39 1013.96 1013.65 1013.49 1013.46 1013.55 1013.66 1012.89 1010.96 1010.52 1010.53 1009.42 1009.29 1008.79 1007.71 1007.15 1006.58 1006.23 1006.40 1007.33 1008.04 1008.61 1008.94 1009.49 1009.08 1008.28 1008.54 1008.56 1008.73 1008.77 1008.77 1007.71 1007.37 1007.22 1007.80 1008.41 1008.28 1007.99 1008.16 1008.40 1008.34 1008.31 1008.19 1008.21 1008.63
1014.08 1013.70 1013.44 1013.27 1013.28 1013.65 1013.03 1011.41 1010.01 1009.80 1009.86 1008.50 1008.25 1007.81 1006.97 1006.83 1006.41 1005.98 1006.33 1006.91 1007.66 1008.43 1008.92 1009.14 1007.88 1007.87 1008.07 1007.91 1008.19 1007.77 1007.91 1007.17 1007.55 1007.75 1008.23 1008.80 1008.71 1007.61 1007.52 1007.76 1007.88 1007.87 1007.74 1007.90 1008.18
1013.75 1013.43 1013.29 1013.07 1013.69 1012.99 1011.97 1009.93 1009.90 1009.85 1009.70 1007.89 1007.28 1005.89 1006.09 1006.10 1005.98 1005.45 1005.74 1006.50 1007.47 1007.95 1008.61 1008.59 1007.52 1007.59 1007.55 1007.45 1007.41 1007.20 1006.09 1006.60 1007.29 1008.20 1008.93 1009.22 1009.15 1007.81 1007.48 1007.35 1007.29 1007.16 1007.22 1007.08 1007.48
1013.42 1013.14 1013.13 1013.09 1013.07 1012.22 1010.10 1009.71 1009.71 1010.29 1009.06 1006.50 1005.94 1004.63 1004.99 1005.51 1005.24 1005.33 1005.39 1006.01 1006.87 1007.47 1008.16 1007.68 1007.21 1007.07 1006.98 1006.58 1006.57 1006.23 1005.99 1006.62 1007.13 1008.50 1009.06 1009.52 1009.69 1007.46 1007.54 1007.70 1007.02 1006.65 1006.40 1006.76 1006.62
1013.00 1012.87 1012.96 1013.21 1013.02 1010.64 1009.90 1010.04 1009.95 1009.84 1007.51 1005.72 1004.84 1004.75 1005.16 1005.08 1005.06 1005.25 1005.55 1005.89 1006.37 1007.43 1007.75 1007.08 1006.52 1006.32 1005.54 1005.19 1005.58 1005.75 1006.26 1007.05 1008.04 1009.01 1009.91 1009.84 1009.79 1007.56 1007.02 1005.93 1005.63 1005.73 1005.72 1005.92 1006.36
1012.35 1012.31 1012.65 1011.85 1010.85 1009.74 1009.86 1010.11 1010.14 1008.82 1006.46 1005.36 1004.82 1004.78 1004.97 1005.33 1005.35 1005.48 1006.02 1006.50 1006.95 1007.82 1008.09 1007.18 1005.92 1004.93 1004.78 1005.12 1004.98 1005.64 1007.27 1008.48 1009.40 1009.98 1010.52 1009.80 1009.58 1006.52 1005.07 1004.90 1004.38 1004.39 1004.52 1004.80 1005.31
1011.42 1011.52 1011.48 1010.73 1010.08 1009.96 1009.74 1010.01 1009.55 1007.56 1006.11 1004.63 1004.61 1005.05 1005.60 1005.56 1005.55 1005.84 1006.27 1006.84 1007.04 1007.67 1008.19 1007.47 1005.84 1004.52 1004.18 1004.24 1004.58 1005.59 1006.81 1008.55 1009.81 1010.81 1010.52 1009.76 1008.55 1005.46 1004.16 1004.29 1004.04 1003.91 1004.06 1004.44 1004.85
1011.49 1011.54 1011.15 1009.00 1009.56 1010.47 1010.30 1010.30 1008.73 1007.17 1005.52 1004.78 1004.76 1005.34 1005.70 1005.41 1005.55 1005.81 1006.34 1006.68 1006.64 1007.02 1007.80 1007.35 1006.01 1004.26 1003.69 1003.55 1003.91 1005.38 1006.69 1007.42 1009.15 1010.59 1010.64 1009.28 1007.71 1005.13 1003.65 1003.90 1003.91 1003.77 1004.12 1004.19 1004.34
1011.28 1010.66 1009.41 1008.02 1008.77 1009.59 1010.00 1009.79 1008.23 1006.63 1005.22 1004.56 1004.66 1004.92 1005.60 1005.34 1005.77 1006.05 1006.21 1005.86 1005.88 1005.83 1006.06 1006.66 1006.35 1004.52 1003.70 1003.47 1003.81 1004.43 1005.97 1007.64 1009.45 1010.69 1010.81 1009.43 1008.00 1006.13 1004.54 1003.68 1003.64 1003.86 1004.17 1004.11 1004.37
1010.93 1010.21 1008.26 1007.83 1008.32 1009.39 1010.30 1009.42 1007.52 1005.69 1005.16 1004.61 1004.49 1005.13 1005.63 1005.80 1005.91 1006.04 1006.53 1005.80 1005.69 1005.10 1005.49 1006.39 1006.85 1005.02 1004.77 1004.38 1004.45 1004.99 1005.88 1007.61 1009.18 1010.06 1010.44 1009.75 1008.09 1005.20 1004.62 1003.82 1003.94 1004.00 1004.43 1004.24 1004.30
1010.94 1010.20 1008.30 1008.22 1009.16 1010.23 1009.92 1008.40 1006.99 1005.30 1004.64 1004.70 1004.91 1005.36 1005.88 1006.30 1006.40 1006.35 1006.86 1006.70 1005.79 1005.53 1006.36 1006.52 1007.02 1006.94 1005.84 1004.87 1004.78 1005.15 1006.01 1007.45 1009.15 1010.12 1010.14 1009.54 1007.29 1005.13 1005.07 1004.26 1003.63 1003.55 1003.47 1003.61 1003.46
1011.66 1010.51 1008.52 1008.32 1009.49 1010.18 1009.20 1008.30 1007.12 1006.07 1005.58 1005.39 1006.09 1006.14 1006.54 1007.28 1007.67 1007.48 1007.32 1006.98 1006.66 1006.42 1007.00 1006.65 1007.38 1007.47 1006.78 1006.09 1005.59 1005.99 1006.67 1007.24 1008.30 1009.18 1009.69 1009.73 1007.83 1006.26 1005.87 1005.32 1005.13 1004.40 1003.58 1003.28 1002.99
1012.03 1011.48 1010.33 1009.64 1010.05 1009.96 1009.40 1008.57 1007.44 1006.53 1006.53 1006.48 1006.95 1007.02 1007.41 1008.17 1008.24 1008.48 1008.05 1007.49 1007.36 1007.13 1007.08 1007.21 1008.58 1008.52 1008.18 1007.57 1007.35 1007.12 1007.45 1007.45 1008.23 1009.46 1009.59 1009.26 1008.68 1008.08 1007.52 1006.94 1006.09 1005.42 1004.77 1004.34 1003.25
1012.86 1013.54 1012.99 1011.70 1011.16 1010.65 1009.72 1008.92 1008.14 1007.48 1007.11 1007.22 1007.69 1008.07 1008.36 1008.96 1009.06 1009.13 1009.06 1008.70 1008.02 1008.13 1008.09 1008.48 1009.32 1009.18 1008.78 1008.28 1007.89 1007.83 1007.91 1008.12 1008.76 1009.44 1009.92 1009.79 1009.97 1010.17 1009.78 1008.89 1008.08 1007.23 1005.87 1005.39 1005.09
1014.70 1014.81 1013.62 1012.71 1011.78 1010.88 1010.19 1009.88 1009.08 1008.38 1008.00 1008.12 1008.41 1008.71 1008.61 1009.21 1009.55 1009.70 1009.52 1009.56 1009.23 1009.14 1009.51 1009.88 1010.06 1009.87 1009.45 1008.86 1008.69 1008.63 1008.85 1009.13 1009.89 1010.30 1010.45 1010.72 1010.92 1010.94 1010.36 1009.79 1009.38 1008.48 1007.43 1006.92 1006.80
1015.66 1015.26 1014.86 1013.70 1012.59 1011.76 1011.41 1010.52 1009.84 1009.16 1008.93 1008.64 1008.63 1008.90 1009.10 1009.12 1009.12 1009.02 1009.17 1009.35 1009.59 1010.28 1010.73 1010.85 1011.02 1011.34 1010.93 1010.10 1009.49 1009.97 1010.41 1010.55 1011.37 1011.70 1011.93 1012.14 1012.38 1011.76 1010.74 1010.15 1009.72 1009.66 1009.15 1008.44 1007.55
Thickness
5753 5754 5754 5755 5756 5756 5757 5759 5760 5761 5763 5765 5767 5769 5772 5774 5780 5782 5784 5808 5810 5814 5810 5806 5802 5802 5800 5789 5791 5791 5750 5740 5753 5752 5763 5775 5772 5794 5797 5786 5788 5792 5785 5789 5784
5753 5753 5753 5754 5755 5756 5757 5759 5761 5762 5763 5765 5767 5769 5772 5773 5777 5782 5816 5817 5814 5813 5805 5798 5792 5796 5782 5785 5785 5771 5747 5756 5774 5777 5773 5774 5777 5783 5780 5776 5776 5780 5786 5787 5780
5752 5753 5752 5752 5754 5755 5757 5759 5761 5762 5763 5765 5767 5769 5771 5773 5776 5796 5823 5821 5816 5815 5811 5805 5800 5791 5777 5784 5783 5778 5758 5776 5784 5787 5791 5783 5777 5787 5775 5764 5776 5773 5773 5776 5773
5751 5751 5751 5751 5752 5754 5755 5757 5759 5761 5763 5764 5767 5769 5771 5772 5762 5814 5822 5823 5817 5813 5807 5799 5791 5776 5770 5771 5787 5771 5786 5787 5789 5792 5789 5782 5783 5776 5775 5778 5789 5786 5780 5775 5768
5749 5750 5750 5751 5751 5752 5754 5756 5758 5760 5762 5764 5766 5768 5771 5770 5780 5819 5820 5819 5814 5809 5798 5789 5780 5776 5767 5778 5784 5779 5788 5797 5796 5795 5794 5791 5782 5785 5781 5791 5789 5781 5775 5772 5767
5749 5749 5750 5750 5752 5752 5754 5755 5757 5759 5762 5764 5766 5767 5769 5761 5814 5818 5816 5812 5810 5805 5797 5793 5786 5788 5778 5779 5779 5792 5791 5790 5791 5793 5797 5782 5777 5782 5784 5788 5784 5778 5773 5769 5767
5749 5750 5751 5751 5752 5754 5755 5756 5758 5760 5762 5764 5765 5767 5767 5780 5813 5814 5814 5809 5809 5806 5794 5799 5799 5785 5783 5776 5800 5792 5779 5784 5789 5790 5787 5791 5765 5770 5779 5781 5776 5779 5773 5769 5769
5749 5751 5752 5752 5754 5755 5756 5758 5760 5762 5763 5764 5765 5766 5766 5809 5811 5810 5813 5809 5811 5808 5805 5807 5803 5791 5782 5795 5786 5775 5770 5754 5787 5789 5790 5783 5749 5774 5774 5771 5772 5778 5784 5776 5772
5750 5752 5753 5754 5755 5757 5758 5760 5762 5763 5764 5764 5763 5765 5768 5811 5804 5816 5815 5804 5807 5806 5805 5808 5800 5783 5785 5767 5750 5754 5739 5749 5769 5789 5781 5771 5760 5776 5773 5765 5763 5770 5774 5776 5775
5752 5753 5755 5756 5757 5758 5760 5761 5762 5763 5763 5763 5767 5760 5787 5796 5811 5816 5816 5811 5799 5797 5793 5790 5775 5760 5755 5747 5720 5743 5745 5755 5758 5779 5779 5765 5763 5774 5769 5760 5762 5765 5768 5776 5779
5753 5755 5756 5757 5758 5759 5762 5762 5761 5760 5765 5773 5777 5782 5798 5811 5820 5811 5815 5802 5795 5786 5764 5774 5753 5741 5755 5761 5765 5760 5752 5749 5773 5786 5774 5765 5764 5773 5776 5762 5760 5768 5771 5775 5777
5753 5756 5758 5758 5759 5759 5760 5767 5780 5785 5771 5788 5787 5787 5799 5807 5792 5805 5816 5788 5777 5757 5767 5756 5742 5772 5774 5773 5767 5762 5754 5762 5776 5785 5777 5763 5764 5774 5779 5770 5771 5771 5776 5777 5777
5754 5756 5758 5759 5759 5758 5763 5776 5789 5791 5768 5787 5789 5790 5796 5803 5791 5794 5804 5791 5777 5762 5759 5745 5768 5783 5775 5772 5763 5766 5756 5766 5760 5774 5773 5760 5753 5771 5785 5781 5779 5778 5781 5785 5781
5754 5756 5757 5758 5756 5762 5770 5788 5788 5789 5744 5776 5786 5801 5804 5804 5791 5815 5813 5797 5778 5765 5763 5760 5782 5776 5771 5766 5772 5749 5790 5783 5775 5756 5734 5762 5725 5764 5774 5776 5782 5786 5784 5787 5787
5754 5756 5756 5757 5758 5765 5786 5789 5790 5776 5730 5790 5790 5826 5813 5797 5803 5802 5818 5800 5774 5773 5768 5763 5777 5774 5768 5773 5782 5768 5791 5779 5781 5759 5756 5751 5735 5764 5773 5763 5777 5787 5793 5792 5796
5754 5755 5755 5753 5754 5775 5783 5783 5780 5741 5740 5781 5799 5794 5793 5800 5802 5805 5801 5809 5800 5776 5775 5778 5797 5792 5788 5798 5793 5798 5785 5768 5759 5748 5722 5747 5742 5754 5765 5779 5788 5795 5798 5801 5799
5755 5756 5754 5760 5771 5780 5781 5775 5736 5726 5783 5780 5783 5791 5789 5784 5789 5792 5781 5774 5761 5748 5747 5771 5784 5803 5806 5788 5797 5783 5753 5718 5725 5717 5721 5743 5741 5768 5801 5804 5808 5805 5807 5810 5810
5759 5758 5760 5767 5774 5777 5776 5751 5728 5761 5767 5798 5790 5783 5773 5782 5784 5783 5773 5764 5774 5765 5744 5749 5753 5795 5807 5795 5786 5778 5762 5721 5719 5710 5725 5747 5739 5778 5815 5812 5815 5816 5814 5812 5810
5754 5754 5759 5778 5776 5770 5759 5722 5735 5756 5784 5786 5784 5770 5770 5782 5785 5782 5768 5767 5776 5773 5751 5741 5754 5806 5812 5813 5806 5783 5760 5773 5736 5727 5718 5736 5763 5799 5814 5812 5812 5812 5812 5811 5812
5753 5758 5766 5782 5779 5769 5744 5727 5747 5771 5787 5791 5771 5776 5760 5773 5774 5771 5765 5786 5783 5788 5789 5773 5750 5794 5811 5817 5812 5798 5787 5752 5727 5724 5720 5728 5743 5750 5792 5804 5810 5809 5807 5811 5813
5751 5753 5773 5780 5778 5754 5726 5731 5757 5783 5786 5781 5778 5771 5772 5770 5773 5763 5768 5786 5791 5799 5795 5779 5762 5782 5797 5791 5783 5778 5769 5752 5740 5723 5711 5707 5732 5786 5794 5806 5804 5807 5807 5811 5813
5746 5741 5770 5773 5739 5722 5727 5746 5769 5781 5795 5789 5783 5778 5774 5773 5772 5769 5760 5767 5792 5794 5771 5782 5754 5744 5764 5797 5797 5792 5777 5752 5722 5731 5717 5713 5734 5801 5792 5804 5810 5811 5817 5817 5820
5735 5738 5765 5765 5721 5722 5741 5751 5768 5768 5772 5778 5766 5776 5775 5761 5756 5760 5764 5781 5784 5781 5771 5781 5750 5730 5747 5765 5782 5772 5770 5766 5742 5728 5726 5714 5726 5783 5789 5793 5796 5802 5811 5816 5823
5732 5726 5735 5743 5734 5739 5740 5742 5751 5773 5767 5771 5766 5767 5759 5746 5750 5748 5753 5771 5776 5778 5778 5770 5736 5736 5720 5743 5752 5754 5754 5763 5747 5717 5722 5721 5742 5754 5763 5771 5782 5790 5799 5802 5817
5719 5709 5711 5714 5725 5729 5738 5744 5744 5746 5762 5758 5754 5749 5749 5733 5737 5736 5744 5748 5763 5762 5763 5752 5733 5741 5746 5746 5750 5750 5748 5752 5745 5739 5725 5731 5729 5725 5732 5749 5760 5771 5787 5790 5790
5701 5696 5703 5709 5714 5728 5725 5731 5734 5743 5750 5744 5741 5743 5743 5734 5736 5731 5740 5740 5741 5748 5744 5735 5725 5733 5735 5741 5738 5737 5732 5733 5720 5715 5723 5715 5714 5720 5729 5743 5744 5753 5764 5768 5769
5692 5695 5695 5706 5711 5716 5714 5728 5731 5738 5744 5748 5748 5740 5737 5742 5748 5749 5747 5744 5744 5734 5720 5723 5712 5704 5702 5712 5720 5704 5703 5705 5698 5698 5697 5689 5694 5705 5716 5725 5733 5733 5740 5747 5757